Le nostre stazioni meteo in Italia

Pubblicità
Il mio iltempo24.it
Carterhouse, Gran Bretagna (99129): Temperatura & dewpoint: 17.08.2017 09:00:00 - 23.08.2017 09:00:00 (BST)Carterhouse, Gran Bretagna (99129): Temperatura -20cm & Temperatura -100cm: 17.08.2017 09:00:00 - 23.08.2017 09:00:00 (BST)Carterhouse, Gran Bretagna (99129): visibility: 17.08.2017 09:00:00 - 23.08.2017 09:00:00 (BST)Carterhouse, Gran Bretagna (99129): precipitazioni: 17.08.2017 09:00:00 - 23.08.2017 09:00:00 (BST)
Data & Tempo tt [°C] td [°C] tt -20cm [°C] tt -100cm [°C] vv [km] rr [mm]
23.08.2017 09:00:00 - - - - - 0,0
23.08.2017 08:00:00 15,1 14,4 - - - 0,0
23.08.2017 07:00:00 14,9 14,3 - - - 0,0
23.08.2017 06:00:00 14,8 14,2 - - - 0,0
23.08.2017 05:00:00 15,0 14,3 - - - 0,0
23.08.2017 04:00:00 15,3 14,4 - - - 0,0
23.08.2017 03:00:00 15,7 14,6 - - - 0,0
23.08.2017 02:00:00 15,5 14,6 - - - 0,2
23.08.2017 01:00:00 15,8 14,6 - - - 0,0
23.08.2017 00:00:00 15,6 14,9 - - - 0,0
22.08.2017 23:00:00 16,0 15,2 - - - 0,0
22.08.2017 22:00:00 16,9 15,7 - - - 0,0
22.08.2017 21:00:00 16,1 15,6 - - - 0,0
22.08.2017 20:00:00 16,5 15,6 - - - 0,0
22.08.2017 19:00:00 16,8 15,8 - - - 0,0
22.08.2017 18:00:00 17,7 16,0 - - - 0,0
22.08.2017 17:00:00 19,3 16,3 - - - 0,0
22.08.2017 16:00:00 19,1 16,3 - - - 0,0
22.08.2017 15:00:00 20,4 16,5 - - - 0,0
22.08.2017 14:00:00 19,4 16,3 - - - 0,0
22.08.2017 13:00:00 19,0 15,8 - - - 0,0
22.08.2017 12:00:00 18,4 15,1 - - - 0,0
22.08.2017 11:00:00 17,7 15,1 - - - 0,0
22.08.2017 10:00:00 16,9 14,9 15,0 14,0 - 0,0
22.08.2017 09:00:00 16,6 14,8 - - - 0,0
22.08.2017 08:00:00 15,2 14,6 - - - 0,0
22.08.2017 07:00:00 13,8 13,3 - - - 0,0
22.08.2017 06:00:00 14,0 13,5 - - - 0,0
22.08.2017 05:00:00 13,8 13,3 - - - 0,0
22.08.2017 04:00:00 13,7 13,3 - - - 0,0
22.08.2017 03:00:00 13,5 13,2 - - - 0,0
22.08.2017 02:00:00 13,4 12,8 - - - 0,0
22.08.2017 01:00:00 13,7 13,0 - - - 0,0
22.08.2017 00:00:00 13,7 12,9 - - - 0,0
21.08.2017 23:00:00 14,2 12,8 - - - 0,0
21.08.2017 22:00:00 14,5 12,6 - - - 0,0
21.08.2017 21:00:00 14,5 12,5 - - - 0,0
21.08.2017 20:00:00 14,5 12,7 - - - 0,2
21.08.2017 19:00:00 17,0 13,1 - - - 0,0
21.08.2017 18:00:00 17,6 13,0 - - - 0,0
21.08.2017 17:00:00 17,6 13,0 - - - 0,0
21.08.2017 16:00:00 18,1 11,7 - - - 0,0
21.08.2017 15:00:00 18,3 11,5 - - - 0,0
21.08.2017 14:00:00 18,4 11,1 - - - 0,0
21.08.2017 13:00:00 17,5 9,8 - - - 0,0
21.08.2017 12:00:00 16,7 10,0 - - - 0,0
21.08.2017 11:00:00 16,0 10,1 - - - 0,0
21.08.2017 10:00:00 14,1 8,8 14,7 14,0 - 0,0
21.08.2017 09:00:00 13,2 8,8 - - - 0,0
21.08.2017 08:00:00 12,0 8,5 - - - 0,0
21.08.2017 07:00:00 10,2 7,8 - - - 0,0
21.08.2017 06:00:00 9,1 7,1 - - - 0,0
21.08.2017 05:00:00 9,5 7,2 - - - 0,0
21.08.2017 04:00:00 10,4 8,6 - - - 0,0
21.08.2017 03:00:00 9,9 8,9 - - - 0,0
21.08.2017 02:00:00 5,8 5,3 - - - 0,0
21.08.2017 01:00:00 7,4 7,3 - - - 0,0
21.08.2017 00:00:00 5,7 5,2 - - - 0,0
20.08.2017 23:00:00 5,8 5,3 - - - 0,0
20.08.2017 22:00:00 6,2 5,1 - - - 0,0
20.08.2017 21:00:00 8,4 6,6 - - - 0,0
20.08.2017 20:00:00 12,1 8,9 - - - 0,0
20.08.2017 19:00:00 13,7 9,0 - - - 0,0
20.08.2017 18:00:00 14,4 8,9 - - - 0,0
20.08.2017 17:00:00 14,1 9,6 - - - 0,0
20.08.2017 16:00:00 14,5 9,6 - - - 0,0
20.08.2017 15:00:00 14,9 10,8 - - - 0,0
20.08.2017 14:00:00 14,9 10,0 - - - 0,0
20.08.2017 13:00:00 15,3 11,3 - - - 0,0
20.08.2017 12:00:00 14,4 10,6 - - - 0,0
20.08.2017 11:00:00 13,4 9,8 - - - 0,0
20.08.2017 10:00:00 12,6 9,8 14,9 14,2 - 0,0
20.08.2017 09:00:00 12,4 10,1 - - - 0,0
20.08.2017 08:00:00 11,1 9,6 - - - 0,0
20.08.2017 07:00:00 9,9 8,9 - - - 0,0
20.08.2017 06:00:00 10,4 9,3 - - - 0,0
20.08.2017 05:00:00 10,1 9,1 - - - 0,0
20.08.2017 04:00:00 10,0 9,0 - - - 0,0
20.08.2017 03:00:00 9,7 8,7 - - - 0,0
20.08.2017 02:00:00 10,1 9,1 - - - 0,0
20.08.2017 01:00:00 10,0 8,9 - - - 0,0
20.08.2017 00:00:00 10,4 9,2 - - - 0,0
19.08.2017 23:00:00 11,1 9,5 - - - 0,0
19.08.2017 22:00:00 11,6 9,6 - - - 0,0
19.08.2017 21:00:00 11,3 9,4 - - - 0,0
19.08.2017 20:00:00 11,9 10,0 - - - 0,0
19.08.2017 19:00:00 11,9 10,6 - - - 0,0
19.08.2017 18:00:00 12,2 10,1 - - - 0,0
19.08.2017 17:00:00 13,0 9,6 - - - 0,0
19.08.2017 16:00:00 13,8 9,6 - - - 0,2
19.08.2017 15:00:00 12,5 10,5 - - - 0,0
19.08.2017 14:00:00 14,1 10,0 - - - 0,0
19.08.2017 13:00:00 13,8 9,4 - - - 0,0
19.08.2017 12:00:00 14,3 8,5 - - - 0,0
19.08.2017 11:00:00 13,9 8,5 - - - 0,0
19.08.2017 10:00:00 12,4 8,9 15,2 14,0 - 0,0
19.08.2017 09:00:00 11,3 8,3 - - - 0,0
19.08.2017 08:00:00 9,7 9,1 - - - 0,0
19.08.2017 07:00:00 9,7 8,4 - - - 0,0
19.08.2017 06:00:00 8,6 7,8 - - - 0,0
19.08.2017 05:00:00 9,1 8,0 - - - 0,0
19.08.2017 04:00:00 9,6 8,3 - - - 0,0
19.08.2017 03:00:00 9,3 7,7 - - - 0,0
19.08.2017 02:00:00 10,2 8,7 - - - 0,0
19.08.2017 01:00:00 10,6 10,0 - - - 0,2
19.08.2017 00:00:00 10,8 10,0 - - - 0,0
18.08.2017 23:00:00 10,3 9,7 - - - 0,0
18.08.2017 22:00:00 9,7 9,0 - - - 0,0
18.08.2017 21:00:00 9,9 9,1 - - - 0,0
18.08.2017 20:00:00 10,4 9,3 - - - 0,6
18.08.2017 19:00:00 10,7 8,8 - - - 0,4
18.08.2017 18:00:00 10,4 9,0 - - - 0,8
18.08.2017 17:00:00 11,8 9,5 - - - 0,2
18.08.2017 16:00:00 11,7 9,3 - - - 0,2
18.08.2017 15:00:00 13,5 8,8 - - - 0,0
18.08.2017 14:00:00 13,5 10,5 - - - 0,0
18.08.2017 13:00:00 13,5 8,7 - - - 0,0
18.08.2017 12:00:00 14,1 9,3 - - - 0,0
18.08.2017 11:00:00 12,3 9,1 - - - 0,0
18.08.2017 10:00:00 12,0 9,7 15,7 14,0 - 0,0
18.08.2017 09:00:00 11,5 10,5 - - - 0,0
18.08.2017 08:00:00 10,8 9,9 - - - 0,0
18.08.2017 07:00:00 10,5 9,6 - - - 1,6
18.08.2017 06:00:00 11,7 11,2 - - - 1,0
18.08.2017 05:00:00 11,6 11,2 - - - 2,4
18.08.2017 04:00:00 11,9 11,4 - - - 1,8
18.08.2017 03:00:00 11,9 11,2 - - - 1,4
18.08.2017 02:00:00 12,8 11,2 - - - 0,0
18.08.2017 01:00:00 12,5 11,5 - - - 0,0
18.08.2017 00:00:00 12,5 11,5 - - - 0,0
17.08.2017 23:00:00 12,6 11,6 - - - 0,2
17.08.2017 22:00:00 12,9 11,9 - - - 0,0
17.08.2017 21:00:00 13,2 12,3 - - - 0,4
17.08.2017 20:00:00 13,7 12,9 - - - 0,4
17.08.2017 19:00:00 15,0 11,4 - - - 0,0
17.08.2017 18:00:00 16,8 11,2 - - - 0,0
17.08.2017 17:00:00 17,8 11,4 - - - 0,0
17.08.2017 16:00:00 17,4 10,9 - - - 0,0
17.08.2017 15:00:00 18,1 10,1 - - - 0,0
17.08.2017 14:00:00 17,9 10,9 - - - 0,0
17.08.2017 13:00:00 17,6 10,9 - - - 0,0
17.08.2017 12:00:00 16,8 11,4 - - - 0,0
17.08.2017 11:00:00 16,5 12,0 - - - 0,0
17.08.2017 10:00:00 14,8 12,0 15,2 14,0 10 0,0
17.08.2017 09:00:00 13,4 11,5 - - - 0,0

tt = Temperatura
td = dewpoint
tt -20cm = Temperatura -20cm
tt -100cm = Temperatura -100cm
vv = visibility
rr = precipitazioni

Stazioni seguenti

WeatherPro
AMSI
MeteoEarth